Stündliche Wetter Kyzylasker

Heute, 10 Mai, Montag

Zeit Temperatur Niederschläge Wind Luftdruck Luftfeuchtigkeit
00:00 +20°C° 0 mm 4 m/S 741 mmHg 33%
01:00 +20°C° 0 mm 4 m/S 741 mmHg 34%
02:00 +19°C° 0 mm 4 m/S 741 mmHg 35%
03:00 +19°C° 0 mm 4 m/S 741 mmHg 37%
04:00 +18°C° 0 mm 3 m/S 741 mmHg 38%
05:00 +18°C° 0 mm 3 m/S 741 mmHg 38%
06:00 +19°C° 0 mm 3 m/S 741 mmHg 37%
07:00 +20°C° 0 mm 3 m/S 741 mmHg 35%
08:00 +21°C° 0 mm 2 m/S 741 mmHg 33%
09:00 +23°C° 0 mm 2 m/S 741 mmHg 30%
10:00 +24°C° 0 mm 2 m/S 741 mmHg 28%
11:00 +25°C° 0 mm 2 m/S 741 mmHg 25%
12:00 +26°C° 0 mm 2 m/S 741 mmHg 22%
13:00 +27°C° 0 mm 2 m/S 740 mmHg 20%
14:00 +28°C° 0 mm 2 m/S 740 mmHg 18%
15:00 +28°C° 0 mm 2 m/S 740 mmHg 17%
16:00 +29°C° 0 mm 3 m/S 739 mmHg 16%
17:00 +29°C° 0 mm 4 m/S 739 mmHg 15%
18:00 +28°C° 0 mm 4 m/S 739 mmHg 18%
19:00 +26°C° 0 mm 4 m/S 740 mmHg 20%
20:00 +25°C° 0 mm 4 m/S 740 mmHg 23%
21:00 +24°C° 0 mm 3 m/S 740 mmHg 24%
22:00 +22°C° 0 mm 3 m/S 740 mmHg 25%
23:00 +21°C° 0 mm 2 m/S 740 mmHg 26%

Morgen, 11 Mai, Dienstag

Zeit Temperatur Niederschläge Wind Luftdruck Luftfeuchtigkeit
00:00 +21°C° 0 mm 2 m/S 740 mmHg 26%
01:00 +20°C° 0 mm 2 m/S 740 mmHg 27%
02:00 +20°C° 0 mm 2 m/S 740 mmHg 28%
03:00 +19°C° 0 mm 2 m/S 740 mmHg 29%
04:00 +19°C° 0 mm 2 m/S 740 mmHg 30%
05:00 +19°C° 0 mm 1 m/S 740 mmHg 31%
06:00 +20°C° 0 mm 2 m/S 741 mmHg 31%
07:00 +22°C° 0 mm 3 m/S 741 mmHg 31%
08:00 +23°C° 0 mm 4 m/S 742 mmHg 31%
09:00 +25°C° 0 mm 5 m/S 742 mmHg 31%
10:00 +26°C° 0 mm 5 m/S 742 mmHg 31%
11:00 +27°C° 0 mm 6 m/S 742 mmHg 30%
12:00 +27°C° 0 mm 6 m/S 742 mmHg 29%
13:00 +28°C° 0 mm 7 m/S 742 mmHg 28%
14:00 +28°C° 0 mm 7 m/S 742 mmHg 26%
15:00 +28°C° 0 mm 7 m/S 742 mmHg 26%
16:00 +28°C° 0 mm 6 m/S 742 mmHg 26%
17:00 +28°C° 0 mm 6 m/S 742 mmHg 26%
18:00 +27°C° 0 mm 6 m/S 742 mmHg 29%
19:00 +26°C° 0 mm 5 m/S 742 mmHg 33%
20:00 +25°C° 0 mm 4 m/S 742 mmHg 36%
21:00 +23°C° 0 mm 4 m/S 742 mmHg 38%
22:00 +22°C° 0 mm 3 m/S 742 mmHg 40%
23:00 +21°C° 0 mm 3 m/S 742 mmHg 42%

übermorgen, 12 Mai, Mittwoch

Zeit Temperatur Niederschläge Wind Luftdruck Luftfeuchtigkeit
00:00 +21°C° 0 mm 3 m/S 742 mmHg 44%
01:00 +20°C° 0 mm 2 m/S 741 mmHg 45%
02:00 +20°C° 0 mm 2 m/S 741 mmHg 47%
03:00 +20°C° 0 mm 2 m/S 741 mmHg 47%
04:00 +20°C° 0 mm 2 m/S 741 mmHg 47%
05:00 +19°C° 0 mm 3 m/S 742 mmHg 47%
06:00 +21°C° 0 mm 3 m/S 742 mmHg 43%
07:00 +23°C° 0 mm 4 m/S 742 mmHg 39%
08:00 +26°C° 0 mm 5 m/S 742 mmHg 34%
09:00 +27°C° 0 mm 5 m/S 742 mmHg 31%
10:00 +28°C° 0 mm 6 m/S 743 mmHg 28%
11:00 +29°C° 0 mm 6 m/S 743 mmHg 26%
12:00 +29°C° 0 mm 7 m/S 743 mmHg 25%
13:00 +29°C° 0 mm 8 m/S 743 mmHg 24%
14:00 +31°C° 0 mm 9 m/S 743 mmHg 23%
15:00 +31°C° 0 mm 9 m/S 743 mmHg 22%
16:00 +29°C° 0 mm 9 m/S 743 mmHg 22%
17:00 +29°C° 0 mm 9 m/S 743 mmHg 21%
18:00 +28°C° 0 mm 8 m/S 743 mmHg 21%
19:00 +26°C° 0 mm 8 m/S 743 mmHg 22%
20:00 +24°C° 0 mm 7 m/S 743 mmHg 22%
21:00 +22°C° 0 mm 7 m/S 743 mmHg 22%
22:00 +21°C° 0 mm 8 m/S 743 mmHg 22%
23:00 +20°C° 0 mm 8 m/S 743 mmHg 22%

13 Mai, Donnerstag

Zeit Temperatur Niederschläge Wind Luftdruck Luftfeuchtigkeit
00:00 +20°C° 0 mm 8 m/S 743 mmHg 22%
01:00 +18°C° 0 mm 7 m/S 743 mmHg 21%
02:00 +17°C° 0 mm 7 m/S 743 mmHg 21%
03:00 +17°C° 0 mm 6 m/S 743 mmHg 22%
04:00 +16°C° 0 mm 6 m/S 743 mmHg 23%
05:00 +16°C° 0 mm 6 m/S 743 mmHg 23%
06:00 +17°C° 0 mm 6 m/S 743 mmHg 22%
07:00 +20°C° 0 mm 6 m/S 743 mmHg 21%
08:00 +21°C° 0 mm 6 m/S 743 mmHg 20%
09:00 +22°C° 0 mm 6 m/S 743 mmHg 19%
10:00 +24°C° 0 mm 7 m/S 743 mmHg 17%
11:00 +26°C° 0 mm 7 m/S 743 mmHg 15%
12:00 +27°C° 0 mm 7 m/S 743 mmHg 14%
13:00 +28°C° 0 mm 7 m/S 743 mmHg 14%
14:00 +29°C° 0 mm 7 m/S 743 mmHg 13%
15:00 +29°C° 0 mm 8 m/S 743 mmHg 13%
16:00 +29°C° 0 mm 9 m/S 743 mmHg 14%
17:00 +29°C° 0 mm 10 m/S 742 mmHg 14%
18:00 +27°C° 0 mm 8 m/S 743 mmHg 16%
19:00 +26°C° 0 mm 7 m/S 743 mmHg 18%
20:00 +23°C° 0 mm 6 m/S 743 mmHg 19%
21:00 +23°C° 0 mm 6 m/S 743 mmHg 20%
22:00 +22°C° 0 mm 6 m/S 743 mmHg 21%
23:00 +22°C° 0 mm 6 m/S 743 mmHg 22%

14 Mai, Freitag

Zeit Temperatur Niederschläge Wind Luftdruck Luftfeuchtigkeit
00:00 +21°C° 0 mm 6 m/S 742 mmHg 24%
01:00 +21°C° 0 mm 6 m/S 742 mmHg 25%
02:00 +20°C° 0 mm 6 m/S 742 mmHg 27%
03:00 +20°C° 0 mm 6 m/S 742 mmHg 29%
04:00 +19°C° 0 mm 6 m/S 742 mmHg 31%
05:00 +19°C° 0 mm 6 m/S 742 mmHg 33%
06:00 +20°C° 0 mm 6 m/S 742 mmHg 31%
07:00 +21°C° 0 mm 6 m/S 742 mmHg 28%
08:00 +22°C° 0 mm 7 m/S 743 mmHg 26%
09:00 +23°C° 0 mm 7 m/S 743 mmHg 25%
10:00 +24°C° 0 mm 7 m/S 743 mmHg 25%
11:00 +26°C° 0 mm 8 m/S 743 mmHg 25%
12:00 +27°C° 0 mm 9 m/S 743 mmHg 24%
13:00 +28°C° 0 mm 9 m/S 742 mmHg 22%
14:00 +29°C° 0 mm 10 m/S 742 mmHg 21%
15:00 +28°C° 0 mm 10 m/S 742 mmHg 20%
16:00 +28°C° 0 mm 11 m/S 742 mmHg 19%
17:00 +27°C° 0 mm 11 m/S 743 mmHg 19%
18:00 +26°C° 0 mm 10 m/S 743 mmHg 20%
19:00 +24°C° 0 mm 10 m/S 743 mmHg 22%
20:00 +23°C° 0 mm 9 m/S 743 mmHg 24%
21:00 +22°C° 0 mm 9 m/S 742 mmHg 25%
22:00 +21°C° 0 mm 9 m/S 742 mmHg 26%
23:00 +20°C° 0 mm 8 m/S 742 mmHg 28%

15 Mai, Samstag

Zeit Temperatur Niederschläge Wind Luftdruck Luftfeuchtigkeit
00:00 +20°C° 0 mm 8 m/S 741 mmHg 29%
01:00 +18°C° 0 mm 8 m/S 741 mmHg 30%
02:00 +18°C° 0 mm 8 m/S 741 mmHg 31%
03:00 +18°C° 0 mm 8 m/S 741 mmHg 32%
04:00 +17°C° 0 mm 7 m/S 740 mmHg 33%
05:00 +17°C° 0 mm 7 m/S 740 mmHg 33%
06:00 +18°C° 0 mm 8 m/S 740 mmHg 32%
07:00 +21°C° 0 mm 9 m/S 741 mmHg 31%
08:00 +22°C° 0 mm 11 m/S 741 mmHg 30%
09:00 +23°C° 0 mm 11 m/S 741 mmHg 28%
10:00 +26°C° 0 mm 11 m/S 741 mmHg 25%
11:00 +27°C° 0 mm 11 m/S 741 mmHg 23%
12:00 +28°C° 0 mm 11 m/S 741 mmHg 22%
13:00 +29°C° 0 mm 11 m/S 740 mmHg 20%
14:00 +31°C° 0 mm 11 m/S 740 mmHg 19%
15:00 +31°C° 0 mm 11 m/S 740 mmHg 19%
16:00 +31°C° 0 mm 11 m/S 740 mmHg 20%
17:00 +31°C° 0 mm 11 m/S 740 mmHg 21%
18:00 +28°C° 0 mm 10 m/S 740 mmHg 20%
19:00 +27°C° 0 mm 9 m/S 740 mmHg 20%
20:00 +26°C° 0 mm 8 m/S 740 mmHg 20%
21:00 +24°C° 0 mm 8 m/S 740 mmHg 20%
22:00 +23°C° 0 mm 8 m/S 740 mmHg 21%
23:00 +22°C° 0 mm 7 m/S 739 mmHg 22%
Mehr zeigen

Wir brauchen deine Erlaubnis

Meteoprog und unser Service Anbieter werden persönliche Daten aufbewahren, so wie Cookies, Geräte Bezeichnung oder ähnliche Technologien von deinem Gerät und Prozess, so wie Persönliche Daten Inhalte und Werbungen, genauso wie social Media und den Verkehr zu analysieren.

  • Aufbewahrung und/oder Zugang zu deiner Geräte Informationen.

    Cookies, Geräte Bezeichnung oder andere Informationen, können aufbewahrt oder Zugang zu deinem Gerät erhalten, für den Grund, der oben angegeben wird.

  • Personalisierte Werbung und Inhalte, Messungen, Einblick in das Publikum und Produkt Entwicklung.

    Werbungen und Inhalte können personalisiert werden, basierend auf ein Profil. Mehr Daten können besser personalisierte Werbungen und Inhalte hinzufügen. Werbung und Inhalte können gezeigt und gemessen werden. Einblicke über das Publikum, welche die Werbung gesehen haben und den Inhalt, können abgeleitet werden. So wie Daten können genutzt werden, um es zu verbessern oder die Benutzer Erfahrung zu verbessern das System und die Software.

Wenn du “Ich stimme zu” klickst, erlaubst du uns, die Cookies zu benutzen die Geräte Bezeichnung, den Web oder ähnliche Technologien zu benutzen. Deine Settings, können in deinem Gerät bei deinem Browser geändert werden.

Für den bestimmten Zweck, berechtigten Interessen beruhen darauf, mehr als auf den Inhalt. Du kannst mehr darüber in unseren Privaten und Cookie Politik lesen.